Regional Weather Roundup
Issued by NWS

Home | Current Version | Previous Version | Graphics & Text | Print | Product List | Glossary On
Versions: 1 2 3 4 5 6 7 8 9 10 11 12 13 14 15 16 17 18 19 20 21 22 23 24 25 26 27 28 29 30 31 32 33 34 35 36 37 38 39 40 41 42 43 44 45 46 47 48 49 50
000
ASUS43 KLSX 271359
RWRMO

WEATHER SUMMARY FOR MISSOURI
NATIONAL WEATHER SERVICE SPRINGFIELD MO
900 AM CDT WED AUG 27 2014

NOTE: "FAIR" INDICATES FEW OR NO CLOUDS BELOW 12,000 FEET WITH NO
       SIGNIFICANT WEATHER AND/OR OBSTRUCTIONS TO VISIBILITY.
       CURRENT SKY AND/OR WEATHER CONDITIONS ARE NOT AVAILABLE FOR
       CHILLICOTHE AND FARMINGTON.

MOZ001>031-035>038-043-044-053-054-271500-
...NORTHERN AND WESTERN MISSOURI...

CITY           SKY/WX    TMP DP  RH WIND       PRES   REMARKS
KANSAS CTY INT PTSUNNY   71  68  90 NE13      30.13F
KANSAS C DTWN  MOSUNNY   78  69  73 N12       30.11S
LEE`S SUMMIT   SUNNY     77  71  82 N9        30.13R
ST JOSEPH      CLOUDY    71  66  84 E8        30.10F
KIRKSVILLE     CLOUDY    70  67  90 NW16G24   30.17R

$$
MOZ066>068-077>081-088>096-101>105-271500-
...SOUTHWEST MISSOURI...

CITY           SKY/WX    TMP DP  RH WIND       PRES   REMARKS
SPRINGFIELD    SUNNY     80  69  69 S6        30.13R
JOPLIN         SUNNY     82  70  66 W8        30.12R

$$
MOZ032>034-039>042-045>050-055>058-069>072-271500-
...CENTRAL MISSOURI...

CITY           SKY/WX    TMP DP  RH WIND       PRES   REMARKS
COLUMBIA       MOSUNNY   79  72  79 CALM      30.10S
JEFFERSON CITY SUNNY     78  71  79 CALM      30.08F
ROLLA          SUNNY     80  69  69 SW9       30.11R
SEDALIA        MOSUNNY   79  69  71 SW7       30.10S
OSAGE BEACH    SUNNY     77  70  78 S3        30.11R

$$
MOZ051-052-059>065-271500-
...EAST CENTRAL MISSOURI...

CITY           SKY/WX    TMP DP  RH WIND       PRES   REMARKS
ST LOUIS INTL  MOSUNNY   80  72  76 SE6       30.11S
SPIRIT OF STL  SUNNY     80  72  76 E6        30.09R
ST CHARLES     SUNNY     78  72  81 E7        30.10S

$$
MOZ072>076-082>087-097>100-106>115-271500-
...SOUTH CENTRAL AND SOUTHEAST MISSOURI...

CITY           SKY/WX    TMP DP  RH WIND       PRES   REMARKS
CAPE GIRARDEAU SUNNY     80  74  81 CALM      30.10R
FARMINGTON     SUNNY     77  72  83 CALM      30.15R
POPLAR BLUFF   SUNNY     80  71  74 CALM      30.09R
WEST PLAINS    SUNNY     82  71  69 W3        30.15R

$$



USA.gov is the U.S. government's official web portal to all federal, state and local government web resources and services.